(30058) = 1990 VB9 = 2000 EJ58

Discovered at Socorro on 2000-03-08 by LINEAR.

Orbit

Orbit type: Main Belt

Note: WebGL enabled browser required.

epoch2024-03-31.0
epoch JD2460400.5
perihelion date2023-05-03.74047
perihelion JD2460068.24047
argument of perihelion (°)351.73238
ascending node (°)321.21407
inclination (°)2.78958
eccentricity0.2653434
perihelion distance (AU)1.7480716
Tisserand w.r.t. Jupiter3.5
ΔV w.r.t. Earth (km/sec)8.3
semimajor axis (AU)2.3794406
mean anomaly (°)89.22139
mean daily motion (°/day)0.26852920
aphelion distance (AU)3.011
period (years)3.67
P-vector [x]0.68142122
P-vector [y]-0.66868282
P-vector [z]-0.29753723
Q-vector [x]0.73125625
Q-vector [y]0.60509729
Q-vector [z]0.31483578
absolute magnitude15.0
phase slope0.15
uncertainty0
referenceMPEC 2024-E02
observations used2245
oppositions21
arc length (days)15161
first opposition used1982
last opposition used2024
residual rms (arc-secs)0.66
perturbers coarse indicatorM-v
perturbers precise indicator003Ek
first observation date used1982-07-09.0
last observation date used2024-01-11.0
computer nameMPCLINUX
JD of orbit computation2456819.545901
perihelion JD uncertainty (days)3.3579E-05
argument of perihelion uncertainty (°)8.2285E-05
ascending node uncertainty (°)8.1964E-05
inclination uncertainty (°)3.4579E-06
eccentricity uncertainty 3.2187E-08
perihelion distance uncertainty (AU)7.6399E-08
Minimum Orbit Intersection Distances (in AU)
for orbit epoch: 2460400.5, reference: E2024-E02
Mercury1.31908
Venus1.02095
Earth0.73388
Mars0.35303
Jupiter2.27277
Saturn6.1184
Uranus15.4909
Neptune27.192

Observations

2279 total observations over interval: 1982 07 09.35756 – 2024 01 11.112052
These data are available for download (format description).

Date (UT) J2000 RA J2000 Dec Magn Location Ref
1982 07 09.35756 13 59 12.50 -16 08 28.7   260 – Siding Spring Observatory-DSS MPS 16907
1982 07 09.39923 13 59 14.15 -16 08 35.6   260 – Siding Spring Observatory-DSS MPS 16907
1990 09 20.38750 02 20 16.25 +18 22 56.3   261 – Palomar Mountain-DSS MPS 16346
1990 09 20.45000 02 20 14.60 +18 22 56.6   261 – Palomar Mountain-DSS MPS 16346
1990 11 10.83642 01 34 51.77 +15 05 09.8 16.9   046 – Klet Observatory, Ceske Budejovice MPC 18984
1990 11 10.85066 01 34 51.07 +15 05 05.9   046 – Klet Observatory, Ceske Budejovice MPC 18984
1994 11 27.98611 05 04 47.68 +27 02 11.5 18.7   010 – Caussols MPS 16907
1994 11 27.99653 05 04 46.92 +27 02 10.7   010 – Caussols MPS 16907
1994 11 28.00747 05 04 46.02 +27 02 06.9   010 – Caussols MPS 16907
2000 03 08.36669 12 06 22.85 -03 28 02.5 19.5   704 – Lincoln Laboratory ETS, New Mexico MPS 11439
2000 03 08.38042 12 06 22.18 -03 27 58.7 19.4   704 – Lincoln Laboratory ETS, New Mexico MPS 11439
2000 03 08.39392 12 06 21.47 -03 27 55.2 18.9   704 – Lincoln Laboratory ETS, New Mexico MPS 11439
2000 03 11.37878 12 03 38.63 -03 13 52.6 19.0   704 – Lincoln Laboratory ETS, New Mexico MPS 11439
2000 03 11.39333 12 03 37.77 -03 13 48.2 18.9   704 – Lincoln Laboratory ETS, New Mexico MPS 11439
2000 03 11.41019 12 03 36.80 -03 13 43.1 18.6   704 – Lincoln Laboratory ETS, New Mexico MPS 11439
2000 03 11.42295 12 03 36.09 -03 13 39.0 19.0   704 – Lincoln Laboratory ETS, New Mexico MPS 11439
2000 03 11.44163 12 03 35.03 -03 13 33.4 19.3   704 – Lincoln Laboratory ETS, New Mexico MPS 11439
2000 03 26.33748 11 49 06.28 -01 53 37.0 18.1 R 699 – Lowell Observatory-LONEOS MPS 12365
2000 03 26.35805 11 49 05.03 -01 53 30.2   699 – Lowell Observatory-LONEOS MPS 12365
2000 03 26.37865 11 49 03.80 -01 53 22.7   699 – Lowell Observatory-LONEOS MPS 12365
2000 03 26.39926 11 49 02.58 -01 53 15.3   699 – Lowell Observatory-LONEOS MPS 12365
2000 04 02.22786 11 42 32.13 -01 15 05.2 18.0 R 699 – Lowell Observatory-LONEOS MPS 12365
2000 04 02.25167 11 42 30.78 -01 14 56.6   699 – Lowell Observatory-LONEOS MPS 12365
2000 04 02.27546 11 42 29.45 -01 14 49.7   699 – Lowell Observatory-LONEOS MPS 12365
2000 04 02.29918 11 42 28.15 -01 14 40.3   699 – Lowell Observatory-LONEOS MPS 12365
2000 04 04.32540 11 40 37.60 -01 03 40.8 18.7   704 – Lincoln Laboratory ETS, New Mexico MPS 12365
2000 04 04.33972 11 40 36.74 -01 03 35.0 18.8   704 – Lincoln Laboratory ETS, New Mexico MPS 12365
2000 04 04.35403 11 40 35.97 -01 03 30.5 18.6   704 – Lincoln Laboratory ETS, New Mexico MPS 12365
2000 04 04.36834 11 40 35.21 -01 03 26.1 18.8   704 – Lincoln Laboratory ETS, New Mexico MPS 12365
2000 04 05.14681 11 39 54.17 -00 59 16.4 18.4   704 – Lincoln Laboratory ETS, New Mexico MPS 12365
2000 04 05.16135 11 39 53.36 -00 59 11.9 18.5   704 – Lincoln Laboratory ETS, New Mexico MPS 12365
2000 04 05.17588 11 39 52.55 -00 59 07.9 18.2   704 – Lincoln Laboratory ETS, New Mexico MPS 12365
2000 04 05.19254 11 39 51.66 -00 59 02.4 18.5   704 – Lincoln Laboratory ETS, New Mexico MPS 12365
2000 04 06.13666 11 39 02.27 -00 54 01.1 18.2   704 – Lincoln Laboratory ETS, New Mexico MPS 12365
2000 04 06.16507 11 39 00.71 -00 53 52.5 17.9   704 – Lincoln Laboratory ETS, New Mexico MPS 12365
2000 04 06.17905 11 38 59.99 -00 53 48.7 18.6   704 – Lincoln Laboratory ETS, New Mexico MPS 12365
2000 04 06.19304 11 38 59.23 -00 53 44.0 18.0   704 – Lincoln Laboratory ETS, New Mexico MPS 12365
2000 04 26.15565 11 25 45.78 +00 30 36.4 18.6 R 699 – Lowell Observatory-LONEOS MPS 14160
2000 04 26.17543 11 25 45.23 +00 30 39.5   699 – Lowell Observatory-LONEOS MPS 14160
2000 04 26.19523 11 25 44.70 +00 30 43.4   699 – Lowell Observatory-LONEOS MPS 14160
2000 04 26.21496 11 25 44.24 +00 30 48.2   699 – Lowell Observatory-LONEOS MPS 14160
2001 08 04.43620 01 56 17.57 +14 20 51.0 18.1   644 – Palomar Mountain/NEAT MPS 32787
2001 08 04.44686 01 56 18.23 +14 20 56.4 18.1   644 – Palomar Mountain/NEAT MPS 32787
2001 08 04.45287 01 56 18.60 +14 20 59.3 18.1   644 – Palomar Mountain/NEAT MPS 32787
2001 08 04.45799 01 56 18.93 +14 21 01.6 17.9   644 – Palomar Mountain/NEAT MPS 32787
2001 08 04.46302 01 56 19.25 +14 21 04.3 18.1   644 – Palomar Mountain/NEAT MPS 32787
2001 08 04.47412 01 56 19.94 +14 21 09.8 18.0   644 – Palomar Mountain/NEAT MPS 32787
2001 08 16.39242 02 07 19.65 +15 47 48.7 18.3   704 – Lincoln Laboratory ETS, New Mexico MPS 32787
2001 08 16.40437 02 07 20.16 +15 47 53.1 18.5   704 – Lincoln Laboratory ETS, New Mexico MPS 32787
2001 08 16.41631 02 07 20.68 +15 47 57.7 18.4   704 – Lincoln Laboratory ETS, New Mexico MPS 32787
2001 08 16.42825 02 07 21.19 +15 48 02.5 18.5   704 – Lincoln Laboratory ETS, New Mexico MPS 32787
2001 08 16.44017 02 07 21.72 +15 48 07.2 18.7   704 – Lincoln Laboratory ETS, New Mexico MPS 32787
2001 08 22.38123 02 11 16.92 +16 23 14.7 18.7   704 – Lincoln Laboratory ETS, New Mexico MPS 33230
2001 08 22.39855 02 11 17.43 +16 23 20.0 19.3   704 – Lincoln Laboratory ETS, New Mexico MPS 33230
2001 08 22.41079 02 11 17.82 +16 23 24.3 19.2   704 – Lincoln Laboratory ETS, New Mexico MPS 33230
2001 08 22.42297 02 11 18.21 +16 23 28.2 19.4   704 – Lincoln Laboratory ETS, New Mexico MPS 33230
2001 08 24.42390 02 12 21.74 +16 34 00.0 18.3   704 – Lincoln Laboratory ETS, New Mexico MPS 33230
2001 08 24.44022 02 12 22.19 +16 34 05.1 19.0   704 – Lincoln Laboratory ETS, New Mexico MPS 33230
2001 08 24.45449 02 12 22.61 +16 34 09.0 18.5   704 – Lincoln Laboratory ETS, New Mexico MPS 33230
2001 08 28.34365 02 14 02.78 +16 52 39.4 17.9 R 699 – Lowell Observatory-LONEOS MPS 34205
2001 08 28.35560 02 14 03.03 +16 52 42.9 18.1   644 – Palomar Mountain/NEAT MPS 34205
2001 08 28.37026 02 14 03.31 +16 52 46.7   699 – Lowell Observatory-LONEOS MPS 34205
2001 08 28.37621 02 14 03.44 +16 52 48.5 18.0   644 – Palomar Mountain/NEAT MPS 34205
2001 08 28.39694 02 14 03.82 +16 52 54.2   699 – Lowell Observatory-LONEOS MPS 34205
2001 08 28.39824 02 14 03.87 +16 52 54.4 17.9   644 – Palomar Mountain/NEAT MPS 34205
2001 08 28.42366 02 14 04.36 +16 53 01.1   699 – Lowell Observatory-LONEOS MPS 34205
2001 09 17.35455 02 13 54.24 +17 43 56.5 17.6   704 – Lincoln Laboratory ETS, New Mexico MPS 35601
2001 09 17.36874 02 13 53.83 +17 43 56.9 17.8   704 – Lincoln Laboratory ETS, New Mexico MPS 35601
2001 09 17.38335 02 13 53.43 +17 43 57.7 18.7   704 – Lincoln Laboratory ETS, New Mexico MPS 35601
2001 09 17.39837 02 13 53.04 +17 43 57.9 18.2   704 – Lincoln Laboratory ETS, New Mexico MPS 35601
2001 09 20.42434 02 12 32.98 +17 44 37.0 17.8   704 – Lincoln Laboratory ETS, New Mexico MPS 35601
2001 09 20.43842 02 12 32.50 +17 44 36.9 18.1   704 – Lincoln Laboratory ETS, New Mexico MPS 35601
2001 09 20.45249 02 12 31.99 +17 44 36.0 18.1   704 – Lincoln Laboratory ETS, New Mexico MPS 35601
2001 09 21.32519 02 12 05.66 +17 44 26.7 16.9 R 699 – Lowell Observatory-LONEOS MPS 35601
2001 09 21.34861 02 12 04.86 +17 44 26.9   699 – Lowell Observatory-LONEOS MPS 35601
2001 09 21.37203 02 12 04.05 +17 44 26.3   699 – Lowell Observatory-LONEOS MPS 35601
2001 09 21.39555 02 12 03.25 +17 44 25.8   699 – Lowell Observatory-LONEOS MPS 35601
2001 09 22.32383 02 11 33.14 +17 44 03.0 17.0 R 699 – Lowell Observatory-LONEOS MPS 35601
2001 09 22.35351 02 11 32.03 +17 44 02.1   699 – Lowell Observatory-LONEOS MPS 35601
2001 09 22.38327 02 11 30.93 +17 44 01.1   699 – Lowell Observatory-LONEOS MPS 35601
2001 09 22.41307 02 11 29.90 +17 43 59.6   699 – Lowell Observatory-LONEOS MPS 35601
2001 09 23.41235 02 10 55.09 +17 43 22.2 17.1   704 – Lincoln Laboratory ETS, New Mexico MPS 35601
2001 09 23.42663 02 10 54.42 +17 43 21.6 17.6   704 – Lincoln Laboratory ETS, New Mexico MPS 35601
2001 09 23.46979 02 10 52.82 +17 43 19.4 17.3   704 – Lincoln Laboratory ETS, New Mexico MPS 35601
2001 09 24.34288 02 10 21.02 +17 42 36.2 17.9   704 – Lincoln Laboratory ETS, New Mexico MPS 35601
2001 09 24.35749 02 10 20.42 +17 42 35.3 18.0   704 – Lincoln Laboratory ETS, New Mexico MPS 35601
2001 09 24.37212 02 10 19.83 +17 42 34.6 17.8   704 – Lincoln Laboratory ETS, New Mexico MPS 35601
2001 09 24.38673 02 10 19.28 +17 42 33.8 17.9   704 – Lincoln Laboratory ETS, New Mexico MPS 35601
